Location: Castiglione Fibocchi
(43.5333°N, 11.7667°E)
Time: 18:09:52
(UTC+00:00)

Cosmos 1908 - Pass Details

Date: 15 August 2020
Orbit: 510 x 531 km, 82.5° (Epoch: 19 September)

Event Time Altitude Azimuth Distance (km) Brightness Sun altitude
Exits shadow 01:56:30 63° 143° (SE) 599 3.3 -22.0°
Maximum altitude 01:56:57 71° 96° (E) 568 3.4 -22.0°
Drops below altitude 10° 02:00:52 10° 13° (NNE) 1,789 6.8 -21.5°
Sets 02:03:01 0° 11° (N) 2,683 7.8 -21.2°
